Location: PSU-Greenbush Astrophysical Observatory
(37.5140°N, 94.9880°W)
Time: 21:24:00
(UTC-06:00)

Altair - Pass Details

Date: 26 January 2020
Orbit: 1502 x 1682 km, 47.2° (Epoch: 16 February)

Event Time Altitude Azimuth Distance (km) Brightness Sun altitude
Rises 11:21:10 0° 280° (W) 4,915 9.9 31.3°
Reaches altitude 10° 11:24:31 10° 286° (WNW) 3,937 9.4 31.5°
Maximum altitude 11:34:17 49° 360° (N) 2,086 8.2 32.1°
Drops below altitude 10° 11:43:59 10° 73° (ENE) 3,913 9.7 32.6°
Sets 11:47:18 0° 79° (E) 4,883 10.2 32.8°
